This is the latest recevied weather packets stored in our database for station/object KG7FOQ-13. If no packets are shown the sender has not sent any weather packets the latest 10 day(s).
| Time | Temp. | Humidity | Pressure | Rain* | Wind** | Luminosity | Snow |
|---|---|---|---|---|---|---|---|
| 1788489655 | 20.56° C | 50% | 1007.1 hPa | 0 mm | - | - | - |
| 1788489354 | 21.11° C | 44% | 1007.1 hPa | 0 mm | - | - | - |
| 1788489054 | 20.56° C | 42% | 1007.3 hPa | 0 mm | - | - | - |
| 1788488751 | 21.11° C | 41% | 1007.3 hPa | 0 mm | - | - | - |
| 1788488451 | 20.56° C | 44% | 1007.4 hPa | 0 mm | - | - | - |
| 1788488148 | 21.11° C | 45% | 1007.3 hPa | 0 mm | - | - | - |
| 1788487247 | 21.11° C | 40% | 1007.4 hPa | 0 mm | - | - | - |
| 1788486946 | 22.22° C | 41% | 1007.5 hPa | 0 mm | - | - | - |
| 1788486646 | 22.22° C | 34% | 1007.5 hPa | 0 mm | - | - | - |
| 1788486043 | 22.78° C | 31% | 1007.5 hPa | 0 mm | - | - | - |
| 1788485742 | 22.78° C | 30% | 1007.6 hPa | 0 mm | - | - | - |
| 1788485442 | 22.78° C | 30% | 1007.7 hPa | 0 mm | - | - | - |
| 1788485141 | 23.33° C | 30% | 1007.7 hPa | 0 mm | - | - | - |
| 1788484879 | 22.78° C | 30% | 1007.8 hPa | 0 mm | - | - | - |
| 1788484841 | 22.78° C | 30% | 1007.8 hPa | 0 mm | - | - | - |
| 1788484540 | 22.78° C | 30% | 1007.8 hPa | 0 mm | - | - | - |
| 1788484259 | 22.78° C | 31% | 1007.8 hPa | 0 mm | - | - | - |
| 1788483939 | 23.33° C | 31% | 1007.8 hPa | 0 mm | - | - | - |
| 1788483638 | 23.33° C | 31% | 1008 hPa | 0 mm | - | - | - |
| 1788483338 | 23.33° C | 30% | 1008 hPa | 0 mm | - | - | - |
| 1788483034 | 23.33° C | 30% | 1008.1 hPa | 0 mm | - | - | - |
| 1788482734 | 23.33° C | 31% | 1008.1 hPa | 0 mm | - | - | - |
| 1788482433 | 23.89° C | 33% | 1008 hPa | 0 mm | - | - | - |
| 1788482133 | 23.33° C | 31% | 1008.1 hPa | 0 mm | - | - | - |
| 1788481832 | 23.33° C | 31% | 1008.1 hPa | 0 mm | - | - | - |
* Rain latest hour (hover to see other rain measurements)
** Current wind speed in m/s (hover to see current wind gust speed)